Location: Assche-ter-Heiden
(50.9174°N, 4.1574°E)
Time: 18:30:45
(UTC+00:00)

STARLINK-56 - Pass Details

Date: 20 January 2020
Orbit: 528 x 531 km, 53.0° (Epoch: 28 February)

Event Time Altitude Azimuth Distance (km) Brightness Sun altitude
Rises 06:40:44 0° 238° (WSW) 2,663 6.8 -8.6°
Reaches altitude 10° 06:42:57 10° 235° (SW) 1,776 5.9 -8.2°
Maximum altitude 06:46:56 64° 154° (SSE) 591 4.0 -7.7°
Drops below altitude 10° 06:50:57 10° 73° (ENE) 1,785 7.0 -7.1°
Sets 06:53:11 0° 70° (ENE) 2,678 7.9 -6.8°
